TimeCDT,TemperatureF,Dew PointF,Humidity,Sea Level PressureIn,VisibilityMPH,Wind Direction,Wind SpeedMPH,Gust SpeedMPH,PrecipitationIn,Events,Conditions,WindDirDegrees,DateUTC
12:53 AM,53.1,46.0,77,30.01,10.0,Calm,Calm,-,N/A,,Clear,0,2012-11-01 05:53:00
1:53 AM,51.1,46.0,83,30.01,10.0,Calm,Calm,-,N/A,,Clear,0,2012-11-01 06:53:00
2:53 AM,50.0,46.0,86,30.00,10.0,Calm,Calm,-,N/A,,Clear,0,2012-11-01 07:53:00
3:53 AM,48.9,44.1,83,29.99,10.0,Calm,Calm,-,N/A,,Clear,0,2012-11-01 08:53:00
4:53 AM,48.0,44.1,86,30.00,9.0,Calm,Calm,-,N/A,,Clear,0,2012-11-01 09:53:00
5:53 AM,45.0,42.1,90,30.01,9.0,NE,4.6,-,N/A,,Clear,40,2012-11-01 10:53:00
6:53 AM,46.0,43.0,89,30.01,8.0,Calm,Calm,-,N/A,,Clear,0,2012-11-01 11:53:00
7:53 AM,45.0,42.1,90,30.03,6.0,NE,3.5,-,N/A,,Clear,40,2012-11-01 12:53:00
9:53 AM,64.9,52.0,63,30.05,10.0,Calm,Calm,-,N/A,,Clear,0,2012-11-01 14:53:00
10:53 AM,70.0,51.1,51,30.05,10.0,Calm,Calm,-,N/A,,Clear,0,2012-11-01 15:53:00
11:53 AM,75.9,53.1,45,30.04,10.0,Variable,3.5,-,N/A,,Clear,0,2012-11-01 16:53:00
12:53 PM,79.0,53.1,40,30.01,10.0,SSE,4.6,-,N/A,,Clear,160,2012-11-01 17:53:00
1:53 PM,82.0,52.0,35,29.98,-9999.0,WSW,6.9,-,N/A,,Clear,240,2012-11-01 18:53:00
2:53 PM,84.9,50.0,30,29.95,-9999.0,Variable,6.9,-,N/A,,Clear,0,2012-11-01 19:53:00
4:53 PM,84.9,50.0,30,29.93,10.0,SW,5.8,-,N/A,,Clear,220,2012-11-01 21:53:00
5:53 PM,82.0,51.1,34,29.93,10.0,South,5.8,-,N/A,,Clear,170,2012-11-01 22:53:00
6:53 PM,75.0,54.0,48,29.94,10.0,SE,4.6,-,N/A,,Clear,130,2012-11-01 23:53:00
7:53 PM,71.1,54.0,55,29.95,10.0,Calm,Calm,-,N/A,,Clear,0,2012-11-02 00:53:00
8:53 PM,66.9,54.0,63,29.95,10.0,Calm,Calm,-,N/A,,Clear,0,2012-11-02 01:53:00
9:53 PM,68.0,54.0,61,29.94,10.0,SSW,6.9,-,N/A,,Clear,200,2012-11-02 02:53:00
10:53 PM,69.1,53.1,57,29.95,10.0,SSW,8.1,-,N/A,,Clear,200,2012-11-02 03:53:00
11:53 PM,69.1,53.1,57,29.94,10.0,SSW,8.1,-,N/A,,Clear,210,2012-11-02 04:53:00